Osoyoos, British Columbia

6:27 PM PDT on March 29, 2017 (GMT -0700)
Osoyoos

Weather History for CWYY - April, 2013

Change the Weather History Date:

Thursday, April 4, 2013

  Actual Average (CYYF) Record (CYYF)
Temperature  
Mean Temperature 52 °F -  
Max Temperature 58 °F 52 °F 69 °F (2004)
Min Temperature 47 °F 32 °F 24 °F (2009)
Degree Days  
Heating Degree Days 12    
Growing Degree Days 2 (Base 50)    
Moisture  
Dew Point 43 °F    
Average Humidity 69    
Maximum Humidity 93    
Minimum Humidity 49    
Precipitation  
Precipitation 0.01 in - - ()
Sea Level Pressure  
Sea Level Pressure 29.82 in    
Wind  
Wind Speed 2 mph ()    
Max Wind Speed 9 mph    
Max Gust Speed -    
Averages and records for this station are not official NWS values.
T = Trace of Precipitation, MM = Missing Value Source: Averaged Metar Reports

Daily Weather History Graph

Daily Weather History Graph

Search for Another Location

Airport or City:

Trip Planner

Search our weather history database for the weather conditions in past years. The results will help you decide how hot, cold, wet, or windy it might be!

Date:

Astronomy

Apr. 04, 2013 Rise Set
Actual Time 6:28 AM PDT 7:33 PM PDT
Civil Twilight 5:55 AM PDT 8:06 PM PDT
Nautical Twilight 5:16 AM PDT 8:45 PM PDT
Astronomical Twilight 4:35 AM PDT 9:27 PM PDT
Moon 3:27 AM PDT (4/4) 1:30 PM PDT (4/4)
Length of Visible Light 14h 10m
Length of Day
13h 05m
Waning Crescent, 32% of the Moon is Illuminated
Apr 4
Waning Crescent
Apr 10
New
Apr 18
First Quarter
Apr 25
Full
May 2
Last Quarter

Hourly Weather History & Observations

Time (PDT) Temp. Dew Point Humidity Pressure Visibility Wind Dir Wind Speed Gust Speed Precip Events Conditions
12:00 AM 51.8 °F 37.9 °F 59% 29.97 in - Calm Calm - N/A   Unknown
1:00 AM 49.5 °F 39.9 °F 70% 29.97 in - NNW 1.2 mph - N/A   Unknown
2:00 AM 51.1 °F 38.5 °F 62% 29.96 in - Calm Calm - N/A   Unknown
3:00 AM 52.0 °F 39.9 °F 63% 29.95 in - NNW 3.5 mph - N/A   Unknown
4:00 AM 48.7 °F 39.4 °F 70% 29.94 in - North 2.3 mph - N/A   Unknown
5:00 AM 50 °F 39 °F 57% 29.93 in - North 2.3 mph - -  
5:00 AM 49.8 °F 39.4 °F 67% 29.93 in - North 2.3 mph - N/A   Unknown
6:00 AM 50.0 °F 39.0 °F 66% 29.92 in - North 3.5 mph - N/A   Unknown
7:00 AM 49.6 °F 39.6 °F 68% 29.91 in - North 2.3 mph - N/A   Unknown
8:00 AM 50.2 °F 39.9 °F 68% 29.90 in - North 3.5 mph - N/A   Unknown
9:00 AM 51.4 °F 39.7 °F 64% 29.88 in - NNW 4.6 mph - N/A   Unknown
10:00 AM 52.5 °F 40.8 °F 64% 29.87 in - NNE 1.2 mph - N/A   Unknown
11:00 AM 54 °F 40 °F 49% 29.85 in - SW 2.3 mph - -  
11:00 AM 53.6 °F 40.5 °F 61% 29.85 in - SW 2.3 mph - N/A   Unknown
12:00 PM 54.3 °F 40.1 °F 59% 29.82 in - WSW 1.2 mph - N/A   Unknown
1:00 PM 55.2 °F 40.1 °F 57% 29.79 in - NW 3.5 mph - N/A   Unknown
2:00 PM 56.1 °F 41.4 °F 58% 29.75 in - North 2.3 mph - N/A   Unknown
3:00 PM 58.1 °F 41.2 °F 53% 29.73 in - South 1.2 mph - N/A   Unknown
4:00 PM 56.8 °F 44.8 °F 64% 29.72 in - South 4.6 mph - N/A   Unknown
5:00 PM 54 °F 48 °F 72% 29.72 in - SSE 6.9 mph - -  
5:00 PM 54.1 °F 47.7 °F 79% 29.72 in - SSE 6.9 mph - N/A   Unknown
6:00 PM 52.0 °F 49.1 °F 90% 29.70 in - South 5.8 mph - N/A   Unknown
7:00 PM 52.2 °F 48.7 °F 88% 29.69 in - SSE 5.8 mph - 0.01 in   Unknown
8:00 PM 51.3 °F 49.3 °F 93% 29.67 in - SSE 3.5 mph - N/A   Unknown
9:00 PM 51.6 °F 49.3 °F 92% 29.68 in - South 3.5 mph - N/A   Unknown
10:00 PM 52.9 °F 49.5 °F 88% 29.68 in - SE 3.5 mph - N/A   Unknown
11:00 PM 54 °F 49 °F 76% 29.69 in - SSE 9.2 mph - -  
11:00 PM 54.3 °F 48.6 °F 81% 29.69 in - SSE 9.2 mph - N/A   Unknown